This is the latest recevied weather packets stored in our database for station/object KC3UTO. If no packets are shown the sender has not sent any weather packets the latest 10 day(s).
| Time | Temp. | Humidity | Pressure | Rain* | Wind** | Luminosity | Snow |
|---|---|---|---|---|---|---|---|
| 1777559156 | 12.78° C | 84% | 1007.3 hPa | 0 mm | - | 235 W/m² | - |
| 1777558248 | 12.22° C | 85% | 1007 hPa | 0 mm | - | 236 W/m² | - |
| 1777557943 | 12.22° C | 85% | 1006.9 hPa | 0 mm | - | 225 W/m² | - |
| 1777557337 | 12.22° C | 88% | 1006.6 hPa | 0 mm | - | 351 W/m² | - |
| 1777557034 | 11.67° C | 90% | 1006.7 hPa | 0 mm | - | 327 W/m² | - |
| 1777556126 | 11.11° C | 94% | 1006.8 hPa | 0 mm | - | 212 W/m² | - |
| 1777555822 | 11.11° C | 95% | 1006.9 hPa | 0 mm | - | 177 W/m² | - |
| 1777555214 | 11.11° C | 97% | 1006.9 hPa | 0 mm | - | 183 W/m² | - |
| 1777554911 | 10.56° C | 97% | 1006.9 hPa | 0 mm | - | 196 W/m² | - |
| 1777554608 | 10.56° C | 97% | 1006.8 hPa | 0 mm | - | 103 W/m² | - |
| 1777553698 | 10° C | 98% | 1007.4 hPa | 0 mm | - | 76 W/m² | - |
| 1777552487 | 10° C | 98% | 1007.1 hPa | 0 mm | - | 80 W/m² | - |
| 1777552183 | 10° C | 99% | 1007.1 hPa | 0 mm | - | 61 W/m² | - |
| 1777551880 | 9.44° C | 99% | 1006.8 hPa | 0 mm | - | 55 W/m² | - |
| 1777551578 | 9.44° C | 99% | 1007 hPa | 0 mm | - | 53 W/m² | - |
| 1777551275 | 9.44° C | 99% | 1006.9 hPa | 0 mm | - | 60 W/m² | - |
| 1777550364 | 9.44° C | 99% | 1007 hPa | 0 mm | - | 43 W/m² | - |
| 1777549758 | 9.44° C | 99% | 1006.9 hPa | 0 mm | - | 38 W/m² | - |
| 1777548846 | 8.89° C | 99% | 1007.3 hPa | 0 mm | - | 33 W/m² | - |
| 1777548240 | 8.89° C | 99% | 1007.2 hPa | 0.51 mm | - | 35 W/m² | - |
| 1777547936 | 8.89° C | 99% | 1007.2 hPa | 0.51 mm | - | 31 W/m² | - |
| 1777547633 | 8.89° C | 99% | 1007.1 hPa | 0 mm | - | 26 W/m² | - |
| 1777547329 | 8.89° C | 99% | 1007.2 hPa | 0 mm | - | 19 W/m² | - |
| 1777547027 | 8.89° C | 99% | 1007 hPa | 0 mm | - | 17 W/m² | - |
| 1777546421 | 8.89° C | 98% | 1007.2 hPa | 0 mm | - | 13 W/m² | - |
* Rain latest hour (hover to see other rain measurements)
** Current wind speed in m/s (hover to see current wind gust speed)